Regional Weather Roundup
Issued by NWS Boston, MA

Current Version | Previous Version | Text Only | Print | Product List | Glossary Off
Versions: 1 2 3 4 5 6 7 8 9 10 11 12 13 14 15 16 17 18 19 20 21 22 23 24 25 26 27

000
ASUS41 KBOX 201810
RWRBOX

REGIONAL WEATHER ROUNDUP
NATIONAL WEATHER SERVICE TAUNTON MA
200 PM EDT THU JUL 20 2017

NOTE:  "FAIR" INDICATES FEW OR NO CLOUDS BELOW 12,000 FEET WITH NO
SIGNIFICANT WEATHER AND/OR OBSTRUCTIONS TO VISIBILITY.

MAZALL-201900-
EASTERN MASSACHUSETTS

CITY           SKY/WX    TMP DP  RH WIND       PRES   REMARKS
BOSTON         PTSUNNY   88  66  48 W12       29.87F HX  90
6HR MIN TEMP:  81; 6HR MAX TEMP:  89;

BEVERLY        MOSUNNY   87  68  52 W9        29.87F HX  90
LAWRENCE       CLOUDY    91  68  46 W7        29.89F HX  95
BEDFORD        PTSUNNY   89  66  46 W8        29.87F HX  91
BLUE HILL        N/A     87  66  49 W10       29.90F
NORWOOD        MOSUNNY   90  70  51 W8G20     29.87F HX  95
MARSHFIELD     PTSUNNY   88  70  55 NE6       29.88F HX  92
PLYMOUTH       MOSUNNY   90  66  45 SW14      29.90F HX  92
TAUNTON        MOSUNNY   90  68  48 S7        29.88F HX  94
NEW BEDFORD    SUNNY     90  68  48 SW9       29.89F HX  94
$$

MAZALL-201900-
CAPE COD AND THE ISLANDS

CITY           SKY/WX    TMP DP  RH WIND       PRES   REMARKS
FALMOUTH       SUNNY     88  68  51 SW14      29.91F HX  91
HYANNIS        MOSUNNY   87  69  54 SW14      29.89F HX  91
CHATHAM        MOSUNNY   86  72  62 SW9       29.92F HX  92
PROVINCETOWN   MOSUNNY   87  68  52 VRB3      29.90F HX  90
NANTUCKET      MOSUNNY   81  67  62 SW12      29.92F
MARTHAS VNYRD  MOSUNNY   88  70  55 S13       29.91F HX  93
$$

MAZALL-201900-
CENTRAL AND WESTERN MASSACHUSETTS

CITY           SKY/WX    TMP DP  RH WIND       PRES   REMARKS
WORCESTER      MOSUNNY   85  63  47 SW9       29.94F
6HR MIN TEMP:  74; 6HR MAX TEMP:  86;

FITCHBURG      LGT RAIN  88  67  49 SW8       29.90F HX  91
ORANGE         MOSUNNY   87  68  52 SW10      29.90F HX  90
SPRINGFIELD    PTSUNNY   89  67  48 S8        29.88F HX  92
WESTFIELD      MOSUNNY   89  67  47 VRB6      29.89F HX  92
NORTH ADAMS    MOSUNNY   84  65  52 VRB6      29.90F
PITTSFIELD     PTSUNNY   82  64  54 W7        29.93F
$$

RIZALL-201900-
RHODE ISLAND

CITY           SKY/WX    TMP DP  RH WIND       PRES   REMARKS
PROVIDENCE     PTSUNNY   91  67  44 W15       29.90F HX  94
6HR MIN TEMP:  79; 6HR MAX TEMP:  92;

NEWPORT        SUNNY     88  65  46 SW7       29.91F HX  90
BLOCK ISLAND   MOSUNNY   84  65  52 SW14      29.94F
WESTERLY       MOSUNNY   90  64  42 SW8       29.92F HX  91
$$

CTZALL-201900-
CONNECTICUT

CITY           SKY/WX    TMP DP  RH WIND       PRES   REMARKS
BRADLEY INTL   PTSUNNY   90  65  43 W12G25    29.89F HX  92
6HR MIN TEMP:  76; 6HR MAX TEMP:  92;

HARTFORD         N/A    N/A N/A N/A MISG      29.89F
BRIDGEPORT     MOSUNNY   91  60  35 SW8       29.91F HX  90
DANBURY        MOSUNNY   88  69  53 VRB7      29.94F HX  92
GROTON         MOSUNNY   85  65  51 SW8       29.91F
NEW HAVEN      MOSUNNY   89  64  43 S8        29.92F HX  90
CHESTER        FAIR      88  66  48 SW7G16    29.94S HX  90
MERIDEN        PTSUNNY   90  69  50 SW6       29.91F HX  94
WILLIMANTIC    MOSUNNY   91  68  46 VRB7      29.91F HX  95
OXFORD         MOSUNNY   90  66  45 W5        29.95F HX  92
$$

MEZ002-015-021-024-NHZ003-005-008-011-012-014-VTZ005-008-201900-
NORTHERN NEW ENGLAND

CITY           SKY/WX    TMP DP  RH WIND       PRES   REMARKS
PORTLAND ME    PTSUNNY   83  64  52 S10       29.86F
6HR MIN TEMP:  75; 6HR MAX TEMP:  88;

BANGOR ME      MOSUNNY   86  63  45 SW5       29.84F
CONCORD NH     CLOUDY    87  66  49 W5        29.87F
MANCHESTER NH  PTSUNNY   90  64  42 SW9       29.85F HX  91
NASHUA NH      MOSUNNY   88  69  53 VRB7      29.87F HX  92
PORTSMOUTH NH  PTSUNNY   87  66  48 SW5       29.85F
JAFFREY NH     PTSUNNY   86  66  51 VRB6      29.92F
KEENE NH       PTSUNNY   86  68  54 VRB5      29.89F
BURLINGTON VT  CLOUDY    85  65  51 VRB5      29.87F
MT. WASHINGTON PTSUNNY   57  48  72 W21G30      N/A
$$

NYZ052-076-201900-
EASTERN NEW YORK

CITY           SKY/WX    TMP DP  RH WIND       PRES   REMARKS
ALBANY         PTSUNNY   86  68  54 N8        29.89F
6HR MIN TEMP:  73; 6HR MAX TEMP:  88;

NEW YORK CITY  MOSUNNY   94  68  42 W7G18     29.90F HX  98
6HR MIN TEMP:  81; 6HR MAX TEMP:  95;

$$

ANZALL-201900-
MARINE OBSERVATIONS

STATION/POSITION TIME  TEMP    WIND        PRES    VSBY  WAVE
                       AIR SEA DIR/SP/G                  HT/PER
                 (UTC) (F)     (DEG/KT/KT) (MB)    (MI)  (FT/S)
BOSTON BUOY      1650   76 74  150/  6/  6 1012.8          1/11
BUZZARDS BAY     1700   74     230/ 12/ 13 1014.0F
NANTUCKET SOUND  1750      72              1012.7F         1
MASS BAY-STELLWA 1704   74 66  140/  4/  6 1012.1F         1
ISLE OF SHOALS   1700   80     180/  9/  9 1011.9F
S OF BLOCK IS    1755      75                N/A           2/ 5
$$

......................KEY.........................
  SKY/WX - SKY CONDITION/PRESENT WEATHER
  TMP    - TEMPERATURE IN FAHRENHEIT
  DWPT   - DEWPOINT IN FAHRENHEIT
  RH     - RELATIVE HUMIDITY IN PERCENT
  WIND   - DIRECTION AND SPEED IN MPH
  PRES   - MEAN SEA LEVEL PRESSURE IN INCHES OF HG
  WCI    - WIND CHILL INDEX
  VSB    - VISIBILITY IN MILES
  HX     - HEAT INDEX
  TC     - TEMPERATURE IN CELSIUS
  VRB    - VARIABLE WIND DIRECTION
  N/A    - NOT AVAILABLE




USA.gov is the U.S. government's official web portal to all federal, state and local government web resources and services.